Tracking 18984 objects as of 24-Feb-2018
HD Live streaming from Space Station
objects crossing your sky now

FENGYUN 1C DEB

Track FENGYUN 1C DEB now!
10-day predictions


NORAD ID: 32198
Int'l Code: 1999-025CUU
Perigee: 838.1 km
Apogee: 990.3 km
Inclination: 98.3 °
Period: 103.1 minutes
Semi major axis: 7285 km
RCS: 0.0075 m2 (small)
Launch date: May 10, 1999
Source: People's Republic of China (PRC)
Launch site: Taiyaun Space Center, China (TSC)

Note: This is SATELLITE DEBRIS
aabbcc
Your satellite tracking list
Your tracking list is empty




NASA's NSSDC Master Catalog

Two Line Element Set (TLE):
1 32198U 99025CUU 18053.24067161  .00000569  00000-0  42178-3 0  9997
2 32198  98.3193  53.4809 0104419  43.7717 317.1666 13.96183377546503
Source of the keplerian elements: AFSPC